Regional Weather Roundup
Issued by NWS San Angelo, TX

Home | Current Version | Previous Version | Text Only | Print | Product List | Glossary On
Versions: 1 2 3 4 5 6 7 8 9 10 11 12 13 14 15 16 17 18 19 20 21 22 23 24 25 26 27 28 29 30 31 32 33 34 35 36 37 38 39 40 41 42 43 44 45 46 47 48 49 50
000
ASUS44 KSJT 281610
RWRSJT
WEST CENTRAL TEXAS REGIONAL WEATHER ROUNDUP
NATIONAL WEATHER SERVICE SAN ANGELO TX
1100 AM CDT THU AUG 28 2014

NOTE: "FAIR" INDICATES FEW OR NO CLOUDS BELOW 12,000 FEET WITH NO
SIGNIFICANT WEATHER AND/OR OBSTRUCTIONS TO VISIBILITY.

TXZ049-054-064>066-071>073-076>078-098-099-113-114-127-128-139-140-
154-155-168>170-281700
...LOCATIONS ACROSS WEST CENTRAL TEXAS...

CITY           SKY/WX    TMP DP  RH WIND       PRES   REMARKS
SAN ANGELO     SUNNY     87  64  46 S13       30.00F
ABILENE        SUNNY     89  63  41 SW13      30.00S
DYESS AFB      SUNNY     88  63  42 S14       29.99R
JUNCTION       SUNNY     84  67  56 CALM      30.00F
SWEETWATER     MOSUNNY   87  60  39 S15       30.05R
BROWNWOOD      SUNNY     88  63  42 SE9G18    30.00S
COLEMAN        SUNNY     86  62  43 S9        30.01S
SONORA         SUNNY     82  64  54 S10       30.07F
OZONA          FAIR      84  63  48 S14       30.06S
BRADY          SUNNY     84  64  51 SE8       30.01S
$$

TEXAS PANHANDLE/OKLAHOMA PANHANDLE

CITY           SKY/WX    TMP DP  RH WIND       PRES   REMARKS
AMARILLO       SUNNY     80  55  42 W10       30.04S
BORGER         SUNNY     78  58  49 NW8       30.02R
CANADIAN       PTSUNNY   80  69  70 CALM      29.96S
DALHART        SUNNY     75  57  53 N6        30.08S
DUMAS          SUNNY     73  60  62 NW6       30.06S
GUYMON         NOT AVBL
HEREFORD       SUNNY     82  62  50 N6        30.06F
PAMPA          SUNNY     79  63  58 SW10G18   30.02S
PERRYTON       MOSUNNY   74  64  72 W12       30.00R
$$

SOUTHERN PANHANDLE/SOUTH PLAINS/ROLLING PLAINS

CITY           SKY/WX    TMP DP  RH WIND       PRES   REMARKS
LUBBOCK        MOSUNNY   85  60  42 SW17      30.03F
SNYDER         CLOUDY    81  62  51 S12       30.02S
CHILDRESS      TSTM      74  67  78 S10       29.99R
SEMINOLE       SUNNY     86  56  36 W8        30.05S
$$

PERMIAN BASIN

CITY           SKY/WX    TMP DP  RH WIND       PRES   REMARKS
MIDLAND        MOSUNNY   86  61  42 S15       30.02S
ODESSA         MOSUNNY   85  59  41 S16       30.03F
WINK           SUNNY     89  59  36 VRB5      30.00S
$$

FAR WEST/SOUTHWEST MOUNTAINS/TRANS PECOS

CITY           SKY/WX    TMP DP  RH WIND       PRES   REMARKS
ALPINE         MOSUNNY   80  58  47 W9        30.20S
DRYDEN           N/A     88  63  43 SE6       30.00F
EL PASO        MOSUNNY   79  56  45 N8        30.13R
FORT STOCKTON  MOSUNNY   87  60  40 S6        30.04S
GUADALUPE PASS SUNNY     76  59  55 SW12      30.22S
MARFA          MOSUNNY   79  59  50 S9        30.20F
PECOS          SUNNY     87  60  39 CALM      30.01S
$$

DALLAS/FORT WORTH METROPLEX

CITY           SKY/WX    TMP DP  RH WIND       PRES   REMARKS
DFW AIRPORT    MOSUNNY   88  68  51 S12       29.98R
FTW MEACHAM    SUNNY     89  66  46 S9        29.97S
DAL-EXECUTIVE  SUNNY     89  67  47 S8        29.98S
GRAND PRAIRIE  SUNNY     88  64  45 S9        30.00R
ADDISON        SUNNY     86  66  51 S7        29.99
MESQUITE       NOT AVBL
LANCASTER      SUNNY     88  67  49 SE8       29.99S
$$

NORTH CENTRAL TEXAS

CITY           SKY/WX    TMP DP  RH WIND       PRES   REMARKS
SHRMAN/DENISON SUNNY     87  67  51 SW13G18   30.00S
GAINESVILLE    SUNNY     85  69  57 S12       30.00S
BRIDGEPORT     SUNNY     88  62  41 SW10G17   30.00S
DENTON         SUNNY     87  67  51 S13       29.98S
WAXAHACHIE     SUNNY     87  66  49 S9        30.00S
GRANBURY       SUNNY     89  65  43 S9        29.99S
$$

WESTERN NORTH TEXAS

CITY           SKY/WX    TMP DP  RH WIND       PRES   REMARKS
WICHITA FALLS  SUNNY     90  60  36 S13       29.95S
VERNON         MOSUNNY   91  55  28 SW14      29.96S
BRECKENRIDGE   SUNNY     91  59  34 S6        29.97S
COMANCHE         N/A     88  63  42 S7        30.00S
$$

CENTRAL AND SOUTH CENTRAL TEXAS

CITY           SKY/WX    TMP DP  RH WIND       PRES   REMARKS
AUSTIN/BERGSTM PTSUNNY   87  73  62 CALM      29.96S
WACO           SUNNY     86  70  58 VRB7      29.98S
HILLSBORO      SUNNY     87  67  51 SE9       29.99S
TEMPLE         PTSUNNY   84  68  58 SE6       29.99R
KILLEEN-GRAY   MOSUNNY   86  66  51 SE8       29.99S
FORT HOOD      SUNNY     89  69  51 S5        29.99S
GEORGETOWN     PTSUNNY   84  72  65 CALM      29.98S
LAGO VISTA     FAIR      85  68  56 S5        30.00S
SAN MARCOS     PTSUNNY   88  72  58 E7        29.98R
NEW BRAUNFELS  MOSUNNY   88  71  57 E6        29.95S
RANDOLPH AFB   MOSUNNY   87  70  57 E6        29.97R
SAN ANTONIO    PTSUNNY   87  72  60 E6        29.97R
STINSON        MOSUNNY   85  72  65 E5        29.94S
PLEASANTON     NOT AVBL
LA GRANGE      PTSUNNY   87  76  69 E6        29.94R
GIDDINGS       PTSUNNY   85  72  64 SE3       30.01R
$$

EAST TEXAS

CITY           SKY/WX    TMP DP  RH WIND       PRES   REMARKS
PARIS          SUNNY     86  68  54 S6        30.01S
CLARKSVILLE    SUNNY     87  70  56 CALM      30.01R
TYLER          MOSUNNY   87  70  56 SE9G18    30.00R
LONGVIEW       MOSUNNY   86  70  58 SE6       30.00R
PALESTINE      PTSUNNY   85  73  67 E5        30.00S
NACOGDOCHES    MOSUNNY   88  72  58 E12       30.00R
$$

TEXAS HILL COUNTRY AND EDWARDS PLATEAU

CITY           SKY/WX    TMP DP  RH WIND       PRES   REMARKS
LLANO          SUNNY     88  66  48 S7        30.02S
HORSESHOE BAY  FAIR      85  68  55 SE3       29.99S
KERRVILLE      SUNNY     82  69  65 S6        30.02R
FREDERICKSBRG  SUNNY     84  65  51 S5        30.01S
ROCKSPRINGS    SUNNY     84  66  54 S3        30.06S
HONDO            N/A    N/A N/A N/A MISG      29.99S
UVALDE         MOSUNNY   85  71  62 SW3       29.98S
DEL RIO        SUNNY     86  68  54 SE9       29.96S
$$

SOUTHEAST TEXAS

CITY           SKY/WX    TMP DP  RH WIND       PRES   REMARKS
COLLEGE STN    PTSUNNY   87  74  64 E9        29.97S
CALDWELL       MOSUNNY   84  73  70 E5        30.01R
CROCKETT       SUNNY     90  75  62 E7        30.02R
BRENHAM        MOSUNNY   85  75  71 E8        29.98R
HUNTSVILLE     MOSUNNY   85  73  67 CALM      29.98S
CONROE         MOSUNNY   85  74  69 SE12      29.98R
HOUSTON BUSH   PTSUNNY   82  73  74 S10       29.98R
HOUSTON HOBBY  PTSUNNY   79  73  82 VRB5      29.97R
PERLAND        CLOUDY    79  74  84 E14       29.98R
WHARTON        HVY RAIN  78  74  88 SE8       29.97R
$$

THE UPPER TEXAS COAST

CITY           SKY/WX    TMP DP  RH WIND       PRES   REMARKS
ORANGE         PTSUNNY   84  73  70 E7        30.00R
PORT ARTHUR    CLOUDY    84  74  71 E13       29.98R
GALVESTON      HVY RAIN  77  75  93 SW6       29.98R FOG
ANGLETON       LGT RAIN  75  73  93 E7        29.95S
BAY CITY       RAIN      77  77 100 CALM      29.94F
$$

TEXAS COASTAL BEND, RIO GRANDE PLAINS DEEP SOUTH TEXAS

CITY           SKY/WX    TMP DP  RH WIND       PRES   REMARKS
VICTORIA       PTSUNNY   88  75  65 E9        29.93S
BEEVILLE       FAIR      89  74  61 NE5       29.92S
ROCKPORT       MOSUNNY   85  76  74 E13       29.90R
PORT ARANSAS   MOSUNNY   86  74  68 NE10      29.90R
PORT LAVACA    MOSUNNY   85  75  72 E10       29.92S
CORPUS CHRISTI MOSUNNY   88  73  61 NE12      29.90R
KINGSVILLE NAS PTSUNNY   90  76  63 NE10      29.88S
COTULLA        MOSUNNY   87  71  58 NE7       29.94S
LAREDO         MOSUNNY   88  72  58 N8        29.96S
BROWNSVILLE    PTSUNNY   88  75  66 NW12      29.84F
PORT ISABEL    PTSUNNY   85  76  74 N10       29.83F
HEBBRONVILLE   MOSUNNY   85  72  63 N6        29.93S
MCALLEN        MOSUNNY   90  74  59 NW10      29.87F
WESLACO        PTSUNNY   88  73  61 N9        29.86S
FALFURRIAS     MOSUNNY   89  71  55 NE7       29.88S
EDINBURG       MOSUNNY   91  72  53 N8        29.86F
$$



USA.gov is the U.S. government's official web portal to all federal, state and local government web resources and services.